Weather History for KBXA - October, 2012

Change the Weather History Date:

Thursday, October 18, 2012

  Actual Average Record
Temperature  
Mean Temperature 66 °F -  
Max Temperature 79 °F 78 °F 86 °F (2014)
Min Temperature 54 °F 54 °F 54 °F (2013)
Cooling Degree Days 2    
Growing Degree Days 16 (Base 50)    
Moisture  
Dew Point 57 °F    
Average Humidity 72    
Maximum Humidity 100    
Minimum Humidity 21    
Precipitation  
Precipitation 0.88 in - - ()
Sea Level Pressure  
Sea Level Pressure 29.84 in    
Wind  
Wind Speed 6 mph ()    
Max Wind Speed 16 mph    
Max Gust Speed 20 mph    
Visibility 9.7 miles    
Events Rain , Thunderstorm    
Averages and records for this station are not official NWS values.
T = Trace of Precipitation, MM = Missing Value Source: Averaged Metar Reports

Daily Weather History Graph

Daily Weather History Graph

Search for Another Location

Airport or City:

Trip Planner

Search our weather history database for the weather conditions in past years. The results will help you decide how hot, cold, wet, or windy it might be!

Date:

Astronomy

Oct. 18, 2012 Rise Set
Actual Time 7:04 AM CDT 6:24 PM CDT
Civil Twilight 6:39 AM CDT 6:48 PM CDT
Nautical Twilight 6:11 AM CDT 7:16 PM CDT
Astronomical Twilight 5:43 AM CDT 7:44 PM CDT
Moon 10:32 AM CDT (10/18) 9:12 PM CDT (10/18)
Length of Visible Light 12h 08m
Length of Day
11h 19m
Waxing Crescent, 14% of the Moon is Illuminated
Oct 18
Waxing Crescent
Oct 21
First Quarter
Oct 29
Full
Nov 6
Last Quarter
Nov 13
New

Hourly Weather History & Observations

Time (CDT) Temp. Dew Point Humidity Pressure Visibility Wind Dir Wind Speed Gust Speed Precip Events Conditions
12:15 AM 72.1 °F 72.1 °F 100% 29.78 in 10.0 mi SSW 5.8 mph - N/A   Mostly Cloudy
12:35 AM 72.5 °F 72.5 °F 100% 29.78 in 10.0 mi SSW 8.1 mph - N/A   Overcast
12:55 AM 72.5 °F 72.5 °F 100% 29.77 in 10.0 mi SSW 9.2 mph - N/A   Overcast
1:15 AM 72.3 °F 72.3 °F 100% 29.78 in 10.0 mi SSW 5.8 mph - N/A   Overcast
1:35 AM 72.3 °F 72.3 °F 100% 29.77 in 10.0 mi SSW 8.1 mph - N/A   Overcast
1:55 AM 72.3 °F 72.3 °F 100% 29.76 in 10.0 mi SSW 4.6 mph - N/A   Overcast
2:15 AM 72.3 °F 72.3 °F 100% 29.76 in 10.0 mi SSW 6.9 mph - N/A   Overcast
2:35 AM 72.1 °F 72.1 °F 100% 29.76 in 10.0 mi SSW 8.1 mph - N/A   Mostly Cloudy
2:55 AM 72.3 °F 72.3 °F 100% 29.75 in 10.0 mi SSW 6.9 mph - N/A Thunderstorm Mostly Cloudy
3:15 AM 72.5 °F 72.5 °F 100% 29.74 in 10.0 mi South 3.5 mph - N/A   Overcast
3:35 AM 72.5 °F 72.5 °F 100% 29.75 in 10.0 mi SW 4.6 mph - N/A   Overcast
3:55 AM 72.7 °F 72.7 °F 100% 29.74 in 10.0 mi Calm Calm - N/A   Overcast
4:15 AM 73.4 °F 73.4 °F 100% 29.76 in 10.0 mi Calm Calm - N/A Thunderstorm Thunderstorm
4:35 AM 72.5 °F 71.1 °F 95% 29.77 in 10.0 mi NNE 16.1 mph - N/A Thunderstorm Thunderstorm
4:55 AM 67.1 °F 67.1 °F 100% 29.78 in 1.2 mi NNE 5.8 mph - 0.67 in Rain , Thunderstorm Heavy Thunderstorms and Rain
5:15 AM 67.1 °F 67.1 °F 100% 29.79 in 3.0 mi SSE 3.5 mph - 0.09 in Rain , Thunderstorm Thunderstorms and Rain
5:35 AM 67.3 °F 67.3 °F 100% 29.79 in 4.0 mi SSW 4.6 mph - 0.15 in Rain , Thunderstorm Rain
5:55 AM 67.1 °F 67.1 °F 100% 29.78 in 10.0 mi Calm Calm - 0.20 in   Mostly Cloudy
6:15 AM 67.1 °F 67.1 °F 100% 29.79 in 10.0 mi Calm Calm - N/A   Light Drizzle
6:35 AM 67.3 °F 67.3 °F 100% 29.79 in 10.0 mi Calm Calm - N/A Thunderstorm Overcast
6:55 AM 67.5 °F 67.5 °F 100% 29.79 in 10.0 mi Calm Calm - 0.01 in   Overcast
7:15 AM 68.0 °F 68.0 °F 100% 29.81 in 10.0 mi North 6.9 mph - N/A Thunderstorm Overcast
7:35 AM 68.9 °F 68.9 °F 100% 29.83 in 10.0 mi North 6.9 mph - N/A   Overcast
7:55 AM 68.4 °F 68.4 °F 100% 29.83 in 10.0 mi North 11.5 mph 16.1 mph N/A   Overcast
8:15 AM 68.5 °F 68.5 °F 100% 29.83 in 10.0 mi North 10.4 mph - N/A   Scattered Clouds
8:35 AM 68.9 °F 65.8 °F 90% 29.85 in 10.0 mi NNE 11.5 mph - N/A   Clear
8:55 AM 68.9 °F 65.1 °F 88% 29.85 in 10.0 mi NNE 8.1 mph 17.3 mph N/A   Clear
9:15 AM 69.8 °F 62.6 °F 78% 29.86 in 10.0 mi NNE 8.1 mph - N/A   Clear
9:35 AM 70.5 °F 56.8 °F 62% 29.85 in 10.0 mi NNE 11.5 mph 16.1 mph N/A   Clear
9:55 AM 70.9 °F 56.3 °F 60% 29.86 in 10.0 mi NNE 5.8 mph 16.1 mph N/A Thunderstorm Clear
10:15 AM 72.3 °F 55.2 °F 55% 29.87 in 10.0 mi NNE 9.2 mph - N/A   Clear
10:35 AM 72.5 °F 52.3 °F 49% 29.87 in 10.0 mi NE 12.7 mph 16.1 mph N/A   Clear
10:55 AM 73.6 °F 53.2 °F 49% 29.88 in 10.0 mi NE 6.9 mph - N/A   Clear
11:15 AM 74.3 °F 53.6 °F 48% 29.89 in 10.0 mi NNE 5.8 mph - N/A   Clear
11:35 AM 75.6 °F 49.3 °F 39% 29.90 in 10.0 mi North 8.1 mph - N/A   Clear
11:55 AM 76.1 °F 48.0 °F 37% 29.89 in 10.0 mi NNE 5.8 mph - N/A   Clear
12:15 PM 77.0 °F 47.5 °F 35% 29.89 in 10.0 mi NNE 10.4 mph - N/A   Clear
12:35 PM 77.4 °F 41.4 °F 28% 29.89 in 10.0 mi North 12.7 mph 19.6 mph N/A   Scattered Clouds
12:55 PM 77.9 °F 42.6 °F 28% 29.88 in 10.0 mi NE 9.2 mph 17.3 mph N/A   Scattered Clouds
1:15 PM 77.9 °F 41.4 °F 27% 29.88 in 10.0 mi NNE 9.2 mph - N/A   Scattered Clouds
1:55 PM 79.0 °F 38.5 °F 23% 29.86 in 10.0 mi NE 12.7 mph 17.3 mph N/A   Clear
2:15 PM 79.3 °F 39.7 °F 24% 29.85 in 10.0 mi NNE 11.5 mph - N/A   Clear
2:35 PM 79.3 °F 39.7 °F 24% 29.85 in 10.0 mi NNE 9.2 mph - N/A   Clear
2:55 PM 79.2 °F 35.6 °F 21% 29.85 in 10.0 mi NNE 9.2 mph - N/A   Clear
3:15 PM 79.2 °F 37.4 °F 22% 29.85 in 10.0 mi North 10.4 mph - N/A   Clear
3:35 PM 79.5 °F 37.4 °F 22% 29.86 in 10.0 mi NE 9.2 mph - N/A   Clear
3:55 PM 79.2 °F 37.4 °F 22% 29.86 in 10.0 mi North 11.5 mph - N/A   Clear
4:15 PM 78.8 °F 36.5 °F 22% 29.87 in 10.0 mi NNE 8.1 mph - N/A   Clear
4:35 PM 78.1 °F 37.8 °F 23% 29.87 in 10.0 mi NNE 5.8 mph - N/A   Clear
4:55 PM 77.5 °F 38.5 °F 25% 29.87 in 10.0 mi North 4.6 mph - N/A   Scattered Clouds
5:15 PM 76.5 °F 41.5 °F 29% 29.87 in 10.0 mi North 5.8 mph - N/A   Clear
5:35 PM 74.8 °F 45.0 °F 34% 29.87 in 10.0 mi North 4.6 mph - N/A   Clear
5:55 PM 70.7 °F 50.2 °F 48% 29.87 in 10.0 mi North 3.5 mph - N/A   Clear
6:15 PM 68.0 °F 51.6 °F 56% 29.87 in 10.0 mi North 4.6 mph - N/A   Clear
6:35 PM 64.8 °F 55.4 °F 72% 29.88 in 10.0 mi Calm Calm - N/A   Clear
6:55 PM 61.7 °F 56.3 °F 82% 29.88 in 10.0 mi North 3.5 mph - N/A   Clear
7:15 PM 60.4 °F 55.4 °F 83% 29.88 in 10.0 mi North 3.5 mph - N/A   Unknown
7:35 PM 59.7 °F 59.7 °F 100% 29.89 in 10.0 mi North 3.5 mph - N/A   Unknown
7:55 PM 59.0 °F 59.0 °F 100% 29.90 in 10.0 mi North 3.5 mph - N/A   Unknown
8:15 PM 60.3 °F 54.0 °F 80% 29.91 in 10.0 mi Calm Calm - N/A   Unknown
8:35 PM 59.4 °F 54.1 °F 83% 29.91 in 10.0 mi Calm Calm - N/A   Clear
8:55 PM 56.8 °F 53.1 °F 87% 29.91 in 10.0 mi Calm Calm - N/A   Unknown
9:15 PM 57.7 °F 52.7 °F 83% 29.92 in 10.0 mi Calm Calm - N/A   Unknown
9:35 PM 56.7 °F 56.7 °F 100% 29.92 in 10.0 mi Calm Calm - N/A   Unknown
9:55 PM 55.8 °F 55.8 °F 100% 29.92 in 10.0 mi Calm Calm - N/A   Unknown
10:35 PM 54.3 °F 54.3 °F 100% 29.93 in 10.0 mi Calm Calm - N/A   Unknown
10:55 PM 54.3 °F 54.3 °F 100% 29.94 in 10.0 mi Calm Calm - N/A   Unknown